{"data":{"norad_id":59420,"intl_designator":"2024-064Y","name":"STARLINK-31466","alt_names":[],"object_type":"PAYLOAD","status":"ACTIVE","operator":null,"country":"US","launch_date":"2024-04-05","launch_site_code":"AFETR","launch_vehicle":null,"mission":null,"orbit_class":"UNKNOWN","rcs_meters":null,"size_class":null,"mass_kg":null,"dimensions":null,"purposes":["comms"],"wikipedia_slug":null,"has_3d_model":false,"image_url":null,"decayed_at":null,"tle_current":{"epoch":"2026-05-24T22:38:15.933408Z","epoch_age_seconds":83541,"freshness":"FRESH","line1":"1 59420U 24064Y   26144.94323997  .00001735  00000+0  72539-4 0  9994","line2":"2 59420  43.0039 345.8890 0000979 278.6979  81.3762 15.27581469120885","mean_motion":15.27581469,"eccentricity":9.79e-5,"inclination_deg":43.0039,"raan_deg":345.889,"arg_perigee_deg":278.6979,"mean_anomaly_deg":81.3762,"bstar":7.2539e-5,"rev_number":12088,"period_min":94.266658061954,"perigee_km":482.37298764054,"apogee_km":483.71640701688,"semimajor_km":6861.1816973287,"source":"CELESTRAK","updated_at":"2026-05-25T13:38:18.943538Z"}}}